STARLINK-11645, 63316

Orbit data source: Space-Track

STARLINK-11645, 63316 is a payload satellite owned by SpaceX/Seattle (US) in LEO that was launched on Tue, 18 Mar 2025 UTC via an FALCON 9 launch vehicle from the Air Force Eastern Test Range (AFETR). Payload-class satellites include a variety of spacecraft equipped with specific instruments for various scientific and technological missions. These include communications satellites like Starlink; space stations such as the ISS; scientific satellites like the Hubble; Earth observation satellites from companies like Planet Labs, Umbra, and HawkEye 360; GPS; miniature CubeSats for education and research; and military/defense satellites.

Loading next visibility...
Identifier
63316, 2025-057K
Orbit
LEO
Country
Flag of USUS
Related business
Manufacturer
SpaceX/Seattle
Mission
Operational Commercial Communications
Bus & Motor
STARLINK V2MD, Unknown motor
Mass
960 kg wet, ~910 kg dry
Launch date (UTC)
2025-03-18 (6 months ago)
Launch vehicle
FALCON 9
Launch site
Air Force Eastern Test Range (AFETR)
Object type
Payload
Rocket body
Debris
Shape & HBR
Box + 2 Pan, 14.5 m
Radar Cross Section
36.964 m², Large (>1 m²)

Expand to show TLE details & history
Last TLE update: 20 hours ago

TLE from 20 hours ago
0 STARLINK-11645
1 63316U 25057K   25259.65653529  .00211352  00000-0  16093-2 0  9997
2 63316  42.9993 233.8189 0000544   5.5304 354.5570 15.70836943 29838
Epoch: 2025-09-16T15:45Z
TLE epoch observation values (Epoch: 2025-09-16T15:45:24.649Z)
Latitude
0.00003°
Longitude
1.62253°
Altitude
355.91 km
Speed
7.698 km/s
True Right ascension
15h 35m 16s
True Declination
0° 00' 00"
Sunlit
Object was in daylight at epoch
Visualization orbit readout
Latitude
Unknown
Longitude
Unknown
Altitude
Unknown
Speed
Unknown
Apparent Right ascension
Unknown
Apparent Declination
Unknown
Sunlit
N/A
Visualization observer readout
Local Sidereal Time
04:30:41
Azimuth
Unknown
Elevation
Unknown
Doppler factor
Unknown
Orbital elements
Apogee altitude
358.852 km
Perigee altitude
358.119 km
Semi-major axis
6,736.623 km
Eccentricity
0.00005
Inclination
42.9993°
RAAN
233.8189°
Arg. of periapsis
5.5304°
True anomaly
354.55641°
Mean anomaly
354.557°
Eccentric anomaly
354.5567°
Mean motion
3.92536 °/min
Orbital period
91.71 mins
BSTAR
0.0016093
Loading maneuver chart data...
Computing Atmospheric mass density...
Loading historical data...
Loading historical data...
Loading historical data...
Loading historical data...
Loading historical data...
Loading historical data...
Loading historical data...

Documentation

Showing up to 5 results
|